KD2SIG Weather Reports


time (UTC)temp
C
wind
direction
speed
KPH
gust
KPH
rain 1hr
cm
rain 24hr
cm
rain mn
cm
humidity
%
barometer
mb
20260504050537 7 250 0.0 0.0 0.00 0.03 0.03 94 1008.9
20260504045531 7 277 3.2 3.2 0.00 0.03 0.03 94 1008.8
20260504045026 7 250 1.6 1.6 0.00 0.03 0.03 94 1008.9
20260504044524 7 240 1.6 1.6 0.00 0.03 0.03 94 1009.1
20260504044021 7 241 1.6 3.2 0.00 0.03 0.03 94 1009.3
20260504043518 7 248 1.6 1.6 0.00 0.03 0.03 94 1009.4
20260504043015 7 263 4.8 4.8 0.00 0.03 0.03 94 1009.5
20260504042512 7 267 1.6 1.6 0.00 0.03 0.03 94 1009.6
20260504042009 7 276 1.6 1.6 0.18 0.03 0.03 93 1009.6
20260504041505 7 263 3.2 3.2 0.00 0.00 0.00 93 1009.7
20260504041001 7 262 3.2 3.2 0.00 0.00 0.00 93 1009.6
20260504040459 7 258 3.2 3.2 0.13 0.00 0.00 93 1009.6
20260504035954 7 259 1.6 1.6 0.43 0.23 0.23 93 1009.5
20260504035452 7 268 1.6 1.6 0.13 0.18 0.18 92 1009.6
20260504034948 7 258 3.2 3.2 0.00 0.15 0.15 92 1009.7
20260504034446 7 274 1.6 3.2 0.00 0.15 0.15 92 1009.5
20260504033943 7 301 1.6 3.2 0.00 0.15 0.15 92 1009.6
20260504033441 7 250 3.2 3.2 0.00 0.15 0.15 92 1009.4
20260504032938 7 288 1.6 3.2 0.00 0.15 0.15 92 1009.4
20260504032435 7 269 3.2 3.2 0.00 0.15 0.15 92 1009.4
20260504031931 7 258 1.6 1.6 0.00 0.15 0.15 91 1009.2
20260504031428 7 254 0.0 0.0 0.00 0.15 0.15 91 1009.3
20260504030925 7 302 0.0 0.0 0.00 0.15 0.15 91 1009.4
20260504030422 7 233 1.6 3.2 0.00 0.15 0.15 91 1009.4
20260504025918 7 263 1.6 3.2 0.00 0.15 0.15 91 1009.5
20260504025415 7 258 1.6 1.6 0.00 0.15 0.15 91 1009.6
20260504024912 7 243 1.6 1.6 0.00 0.15 0.15 90 1009.6
20260504024409 7 253 1.6 1.6 0.00 0.15 0.15 90 1009.4
20260504023906 7 215 3.2 3.2 0.00 0.15 0.15 90 1009.5
20260504023403 7 267 1.6 1.6 0.00 0.15 0.15 90 1009.9
20260504022858 7 173 1.6 1.6 0.18 0.15 0.15 89 1009.9
20260504022355 7 262 3.2 3.2 0.18 0.15 0.15 89 1009.9
20260504021851 7 241 4.8 4.8 0.00 0.13 0.13 88 1010.0
20260504021349 7 302 4.8 8.0 0.13 0.13 0.13 88 1010.0
20260504020845 7 260 0.0 0.0 0.30 0.13 0.13 87 1009.9
20260504020342 7 276 3.2 3.2 0.18 0.10 0.10 86 1010.1
20260504015838 7 259 1.6 1.6 0.13 0.08 0.08 85 1010.1
20260504015335 7 249 3.2 3.2 0.13 0.08 0.08 83 1010.1
20260504014831 7 276 8.0 11.3 0.18 0.05 0.05 82 1010.1
20260504014327 8 234 6.4 8.0 0.00 0.03 0.03 80 1010.2
20260504013825 8 227 1.6 1.6 0.13 0.03 0.03 79 1010.1
20260504013322 8 248 1.6 1.6 0.13 0.03 0.03 77 1010.3
20260504012819 8 247 4.8 8.0 0.00 0.00 0.00 74 1010.1
20260504012316 8 243 1.6 3.2 0.00 0.00 0.00 72 1010.1
20260504011814 9 254 1.6 1.6 0.00 0.00 0.00 68 1009.8
20260504011310 9 234 3.2 3.2 0.00 0.00 0.00 66 1009.9
20260504010806 9 258 0.0 0.0 0.00 0.00 0.00 63 1009.7
20260504010302 9 248 3.2 3.2 0.00 0.00 0.00 61 1009.9
20260504005759 9 242 1.6 1.6 0.00 0.00 0.00 61 1009.5
20260504005256 9 236 1.6 3.2 0.00 0.00 0.00 60 1009.6
20260504004754 9 242 1.6 1.6 0.00 0.00 0.00 58 1009.6
20260504004251 9 239 1.6 1.6 0.00 0.00 0.00 58 1009.8
20260504003747 9 256 0.0 1.6 0.00 0.00 0.00 58 1009.4
20260504003244 9 275 0.0 1.6 0.00 0.00 0.00 57 1009.4
20260504002740 9 251 1.6 1.6 0.00 0.00 0.00 57 1009.6
20260504002237 9 252 0.0 1.6 0.00 0.00 0.00 57 1009.7
20260504001735 9 260 1.6 1.6 0.00 0.00 0.00 56 1009.6
20260504001232 9 302 0.0 0.0 0.00 0.00 0.00 56 1009.6
20260504000729 9 260 1.6 1.6 0.00 0.00 0.00 55 1009.8
20260504000226 9 273 1.6 3.2 0.00 0.00 0.00 54 1009.7
20260503235724 10 255 1.6 3.2 0.00 0.00 0.00 52 1009.7
20260503235221 10 239 3.2 4.8 0.00 0.00 0.00 50 1009.7
20260503234719 10 261 4.8 4.8 0.00 0.00 0.00 48 1009.6
20260503234217 10 254 1.6 3.2 0.00 0.00 0.00 48 1009.7
20260503233713 10 273 3.2 3.2 0.00 0.00 0.00 46 1009.6
20260503233209 10 193 3.2 3.2 0.00 0.00 0.00 46 1009.7
20260503232706 10 256 1.6 1.6 0.00 0.00 0.00 45 1009.9
20260503232203 10 246 1.6 1.6 0.00 0.00 0.00 45 1009.9
20260503231702 10 261 0.0 1.6 0.00 0.00 0.00 44 1009.8
20260503231157 10 241 3.2 4.8 0.00 0.00 0.00 42 1009.7
20260503230654 10 253 1.6 1.6 0.00 0.00 0.00 45 1009.8
20260503230151 10 272 8.0 9.7 0.00 0.00 0.00 44 1009.8
20260503225648 10 290 1.6 1.6 0.00 0.00 0.00 45 1009.7
20260503225148 10 245 3.2 3.2 0.00 0.00 0.00 42 1009.7
20260503224646 10 284 6.4 8.0 0.00 0.00 0.00 40 1009.8
20260503224144 10 245 4.8 4.8 0.00 0.00 0.00 39 1009.6
20260503223642 10 272 4.8 4.8 0.00 0.00 0.00 39 1009.8
20260503223138 10 258 6.4 8.0 0.00 0.00 0.00 37 1009.8
20260503222635 10 263 8.0 8.0 0.00 0.00 0.00 38 1009.9
20260503222132 11 288 4.8 4.8 0.00 0.00 0.00 40 1009.8
20260503221631 11 289 6.4 8.0 0.00 0.00 0.00 40 1009.9
20260503221128 11 249 8.0 9.7 0.00 0.00 0.00 39 1009.9
20260503220624 10 258 3.2 3.2 0.00 0.00 0.00 39 1009.9
20260503220121 11 295 4.8 8.0 0.00 0.00 0.00 40 1010.0
20260503215618 11 294 8.0 11.3 0.00 0.00 0.00 38 1010.0
20260503215115 11 251 4.8 8.0 0.00 0.00 0.00 40 1009.8
20260503214613 11 258 3.2 3.2 0.00 0.00 0.00 40 1009.9
20260503214109 11 271 11.3 12.9 0.00 0.00 0.00 38 1010.0
20260503213609 11 273 8.0 9.7 0.00 0.00 0.00 38 1009.7
20260503213104 12 265 6.4 9.7 0.00 0.00 0.00 38 1010.0
20260503212602 12 287 9.7 12.9 0.00 0.00 0.00 39 1009.8
20260503212059 11 327 14.5 17.7 0.00 0.00 0.00 41 1010.1
20260503211556 12 286 11.3 12.9 0.00 0.00 0.00 40 1009.9
20260503211051 11 268 8.0 9.7 0.00 0.00 0.00 44 1010.1
20260503210549 11 307 8.0 9.7 0.00 0.00 0.00 43 1010.1
20260503210044 11 324 6.4 8.0 0.00 0.00 0.00 45 1010.2
20260503205541 11 241 8.0 9.7 0.00 0.00 0.00 45 1010.2
20260503205038 11 302 4.8 9.7 0.00 0.00 0.00 47 1010.2
20260503204535 10 284 11.3 12.9 0.00 0.00 0.00 47 1010.3
20260503204032 11 251 4.8 4.8 0.00 0.00 0.00 48 1010.4
20260503203529 10 276 16.1 24.1 0.00 0.00 0.00 46 1010.6
20260503203026 10 248 11.3 12.9 0.00 0.00 0.00 50 1010.5
20260503202524 11 288 11.3 16.1 0.00 0.00 0.00 49 1010.8
20260503202022 11 285 8.0 11.3 0.00 0.00 0.00 48 1010.6
20260503201520 11 331 11.3 14.5 0.00 0.00 0.00 47 1010.9
20260503201017 11 249 11.3 16.1 0.00 0.00 0.00 49 1010.5
20260503200513 11 260 6.4 12.9 0.00 0.00 0.00 48 1010.7
20260503200009 11 301 14.5 22.5 0.00 0.00 0.00 49 1010.7
20260503195507 11 271 9.7 14.5 0.00 0.00 0.00 49 1010.8
20260503195003 10 272 8.0 11.3 0.00 0.00 0.00 52 1010.9
20260503194501 10 244 11.3 14.5 0.00 0.00 0.00 49 1010.7
20260503193955 10 264 8.0 11.3 0.00 0.00 0.00 52 1010.8
20260503193451 11 272 9.7 14.5 0.00 0.00 0.00 48 1011.0
20260503192947 11 317 8.0 9.7 0.00 0.00 0.00 48 1011.0
20260503192443 10 251 8.0 11.3 0.00 0.00 0.00 47 1011.1
20260503191939 11 291 14.5 20.9 0.00 0.00 0.00 46 1011.2
20260503191437 11 266 4.8 4.8 0.00 0.00 0.00 45 1011.3
20260503190933 11 310 11.3 14.5 0.00 0.00 0.00 44 1011.4
20260503190431 11 290 8.0 9.7 0.00 0.00 0.00 43 1011.5
20260503185927 11 325 6.4 9.7 0.00 0.00 0.00 43 1011.3
20260503185424 10 297 4.8 8.0 0.00 0.00 0.00 45 1011.7
20260503184923 10 278 6.4 9.7 0.00 0.00 0.00 43 1011.4
20260503184420 11 313 11.3 12.9 0.00 0.00 0.00 43 1011.7
20260503183916 11 249 9.7 11.3 0.00 0.00 0.00 41 1011.8
20260503183413 10 240 1.6 3.2 0.00 0.00 0.00 41 1011.8
20260503182910 11 253 4.8 8.0 0.00 0.00 0.00 42 1011.6
20260503182409 10 185 8.0 11.3 0.00 0.00 0.00 39 1011.7
20260503181906 11 242 8.0 11.3 0.00 0.00 0.00 40 1011.7
20260503181403 11 258 8.0 11.3 0.00 0.00 0.00 38 1011.7
20260503180859 11 297 9.7 11.3 0.00 0.00 0.00 39 1011.7
20260503180357 11 287 6.4 8.0 0.00 0.00 0.00 39 1011.8
20260503175853 10 273 6.4 8.0 0.00 0.00 0.00 41 1011.6
20260503175351 10 273 8.0 11.3 0.00 0.00 0.00 40 1011.6
20260503174847 11 258 14.5 20.9 0.00 0.00 0.00 41 1011.8
20260503174346 11 265 11.3 14.5 0.00 0.00 0.00 42 1011.9
20260503173845 10 292 4.8 4.8 0.00 0.00 0.00 41 1011.9
20260503173342 10 173 6.4 8.0 0.00 0.00 0.00 44 1011.9
20260503172839 10 214 4.8 8.0 0.00 0.00 0.00 46 1012.1
20260503172337 10 322 9.7 9.7 0.00 0.00 0.00 45 1011.8
20260503171832 10 346 11.3 14.5 0.00 0.00 0.00 42 1012.0
20260503171329 10 266 9.7 12.9 0.00 0.00 0.00 45 1012.0
20260503170826 10 249 6.4 9.7 0.00 0.00 0.00 47 1012.1
20260503170323 10 266 4.8 8.0 0.00 0.00 0.00 46 1012.3
20260503150715 8 284 8.0 11.3 0.00 0.00 0.00 48 1013.4
20260503150211 8 269 9.7 11.3 0.00 0.00 0.00 48 1013.6
20260503140136 7 307 6.4 9.7 0.00 0.00 0.00 52 1013.5
20260503131105 7 281 4.8 4.8 0.00 0.00 0.00 55 1013.9
20260503130603 7 309 6.4 9.7 0.00 0.00 0.00 57 1013.8
20260503110453 3 256 0.0 0.0 0.00 0.00 0.00 86 1013.2
20260503090339 2 254 0.0 0.0 0.00 0.00 0.00 91 1013.1
20260503081306 3 256 0.0 0.0 0.00 0.00 0.00 91 1013.6
20260503080802 3 256 0.0 0.0 0.00 0.00 0.00 91 1013.6
20260503080300 3 256 0.0 0.0 0.00 0.00 0.00 91 1013.6
20260503072736 3 258 0.0 0.0 0.00 0.00 0.00 89 1013.5
20260503072232 3 261 0.0 0.0 0.00 0.00 0.00 89 1013.5
20260503071729 3 261 0.0 0.0 0.00 0.00 0.00 89 1013.3
20260503071226 3 261 0.0 0.0 0.00 0.00 0.00 89 1013.4
20260503070722 3 261 0.0 0.0 0.00 0.00 0.00 89 1013.5
20260503070221 3 256 0.0 0.0 0.00 0.00 0.00 88 1013.4
20260503060145 3 258 0.0 0.0 0.00 0.00 0.00 86 1013.5
20260503054632 4 260 0.0 0.0 0.00 0.00 0.00 86 1013.7